Location: Holyhead Bay
(53.3667°N, 4.6667°W)
Time: 22:57:53
(UTC+00:00)

Cosmos 1408 Rocket - Pass Details

Date: 18 April 2021
Orbit: 601 x 631 km, 82.6° (Epoch: 16 May)

Event Time Altitude Azimuth Distance (km) Brightness Sun altitude
Rises 21:58:38 0° 350° (N) 2,866 8.1 -19.0°
Reaches altitude 10° 22:00:53 10° 354° (N) 1,959 7.0 -19.2°
Maximum altitude 22:05:11 65° 76° (ENE) 670 3.6 -19.6°
Enters shadow 22:06:08 49° 133° (SE) 785 3.6 -19.6°
